Other Surface Observations
Issued by NWS

Home | Current Version | Previous Version | Text Only | Print | Product List | Glossary On
Versions: 1 2 3 4 5 6 7 8 9 10 11 12 13 14 15 16 17 18 19 20 21 22 23 24 25 26 27 28 29 30 31 32 33 34 35 36 37 38 39 40 41 42 43 44 45 46 47 48 49 50
018
SXUS52 KTAE 080218
OSOTAE
OSOTAE
North Florida/South Alabama/Southwest Georgia Weather Roundup
National Weather Service Tallahassee Florida
900 PM EST SUN FEB 07 2016

Note: "fair" indicates few or no clouds below 12,000 feet with no
significant weather and/or obstructions to visibility.

!FLZ017-115-028-034-025-080300
...North Florida...

CITY           SKY/WX    TMP DP  RH WIND       PRES   REMARKS
TALLAHASSEE    CLEAR     41  31  67 CALM      30.07R
APALACHICOLA   CLEAR     46  34  62 W6        30.10R WCI  43
PERRY          CLEAR     43  32  65 CALM      30.08R
CROSS CITY       N/A     39  32  76 CALM      30.07R
JACKSONVILLE   CLEAR     43  33  68 W5        30.03R WCI  40
$$

!FLZ112-006-005-002-011-080300
...Florida Panhandle...

CITY           SKY/WX    TMP DP  RH WIND       PRES   REMARKS
MARIANNA       CLEAR     46  31  55 W3        30.07S
BONIFAY        FAIR      43  36  76 CALM      30.09S
PANAMA CITY NW FAIR      45  34  65 SW7       30.09R WCI  41
TYNDALL AFB    CLEAR     53  36  52 NW9       30.10R
TYND DRONE APT FAIR      54  36  50 MISG      30.10R
DE FUNIAK SPR  FAIR      47  28  46 W3        30.10R
EGLIN AFB      CLEAR     46  35  63 W5        30.10R WCI  44
DESTIN         CLEAR     55  36  48 CALM      30.11R
HURLBURT       CLEAR     51  30  45 W10       30.10S
CRESTVIEW      CLEAR     40  32  73 W3        30.11S
PENSACOLA      CLEAR     49  32  52 W8        30.12S
$$

!ALZ063-066-080300
...South Alabama...

CITY           SKY/WX    TMP DP  RH WIND       PRES   REMARKS
DOTHAN         CLEAR     48  26  42 W7        30.10S WCI  45
OZARK CAIRNS   CLEAR     44  28  54 W3        30.07R
FT RUCKER HELI CLEAR     43  28  55 CALM      30.07R
RUCKER HELI 3  FAIR      48  26  42 W5        30.08S
RUCKER HELI 2  NOT AVBL
FLORALA APT    CLEAR     45  28  51 CALM      30.11R
ANDALUSIA      CLEAR     47  31  53 NW3       30.09R
TROY           CLEAR     41  30  65 CALM      30.08R
EUFALA         FAIR      41  30  65 CALM      30.04S
MOBILE         CLEAR     45  33  63 SW5       30.14R WCI  43
$$

!GAZ120>161-080300
...Southwest and South Central Georgia...

CITY           SKY/WX    TMP DP  RH WIND       PRES   REMARKS
THOMASVILLE    FAIR      43  34  70 W3        30.06R
BAINBRIDGE     CLEAR     43  32  65 W3        30.07R
MOODY AFB      CLEAR     46  27  48 W5        30.02R WCI  43
VALDOSTA       CLEAR     39  32  76 CALM      30.05R
MOULTRIE       CLEAR     43  34  70 CALM      30.05S
BLAKELY        CLEAR     46  32  57 CALM      30.06S
ALBANY         CLEAR     41  31  67 CALM      30.06R
TIFTON         FAIR      46  30  55 W5        30.03R WCI  43
FITZGERALD     FAIR      44  33  64 CALM      30.04R
CORDELE        FAIR      44  35  69 CALM      30.03S
AMERICUS       FAIR      43  30  61 W3        30.04S
HOMERVILLE     FAIR      43  34  70 W6        30.03R WCI  39
$$

!GMZ750-755-770-775-080300
...Coastal and Buoy Obs...

STATION/POSITION TIME  TEMP    WIND        PRES    VSBY  WAVE
                       AIR SEA DIR/SP/G                  HT/PER
                 (UTC) (F)     (DEG/KT/KT) (MB)    (MI)  (FT/S)
KEATON BEACH     0200   50     330/  3/  4 1018.6R
CEDAR KEY        0200   53     300/  6/  7 1019.0R
C TOWER          NOT AVBL
APALACHICOLA BUO 0150   59 68  290/ 14/ 17 1019.0F         3/ 6
PANAMA CITY BUOY 0150   58 69  300/ 14/ 17 1020.3R         3/ 5
MOBILE BUOY      NOT AVBL
ORANGE BCH AL BU 0150   56 61  260/ 16/ 19 1020.0R         2/ 3
$$




USA.gov is the U.S. government's official web portal to all federal, state and local government web resources and services.